Weather History for Greybull, WY

Change the Weather History Date:

Thursday, November 22, 2012

  Actual Average Record
Temperature  
Mean Temperature 34 °F 26 °F  
Max Temperature 44 °F 39 °F 64 °F (2006)
Min Temperature 21 °F 14 °F -7 °F (2013)
Degree Days  
Heating Degree Days 31 39  
Month to date heating degree days 705  
Since 1 July heating degree days 1527  
Cooling Degree Days 0 0  
Month to date cooling degree days 0  
Year to date cooling degree days 669  
Moisture  
Dew Point 23 °F    
Average Humidity 70    
Maximum Humidity 89    
Minimum Humidity 27    
Precipitation  
Precipitation 0.00 in 0.01 in 0.04 in (2001)
Month to date precipitation 0.21  
Year to date precipitation 7.14  
Sea Level Pressure  
Sea Level Pressure 30.23 in    
Wind  
Wind Speed 16 mph (NW)    
Max Wind Speed 31 mph    
Max Gust Speed 40 mph    
Visibility 8 miles    
Events Snow    
T = Trace of Precipitation, MM = Missing Value Source: NWS Daily Summary

Daily Weather History Graph

Daily Weather History Graph

Search for Another Location

Airport:

Trip Planner

Search our weather history database for the weather conditions in past years. The results will help you decide how hot, cold, wet, or windy it might be!

Date:

Astronomy

Nov. 22, 2012 Rise Set
Actual Time 7:18 AM MST 4:38 PM MST
Civil Twilight 6:46 AM MST 5:10 PM MST
Nautical Twilight 6:10 AM MST 5:46 PM MST
Astronomical Twilight 5:35 AM MST 6:20 PM MST
Moon 1:36 PM MST (11/22) 1:29 AM MST (11/22)
Length of Visible Light 10h 24m
Length of Day
9h 19m
Waxing Gibbous, 72% of the Moon is Illuminated
Nov 22
Waxing Gibbous
Nov 28
Full
Dec 6
Last Quarter
Dec 13
New
Dec 19
First Quarter

Hourly Weather History & Observations

Time (MST) Temp. Windchill Dew Point Humidity Pressure Visibility Wind Dir Wind Speed Gust Speed Precip Events Conditions
12:13 AM 33.8 °F 20.3 °F 30.2 °F 87% 29.93 in 4.0 mi NNW 28.8 mph 36.8 mph 0.00 in Snow Light Snow
12:18 AM 33.8 °F 19.9 °F 30.2 °F 87% 29.93 in 2.0 mi NNW 31.1 mph 40.3 mph 0.00 in Snow Light Snow
12:22 AM 33.8 °F 20.3 °F 30.2 °F 87% 29.94 in 1.0 mi NNW 28.8 mph 40.3 mph 0.00 in Snow Light Snow
12:25 AM 33.8 °F 21.6 °F 30.2 °F 87% 29.94 in 0.8 mi NNW 23.0 mph 39.1 mph 0.00 in Snow Light Snow
12:33 AM 33.8 °F 21.0 °F 30.2 °F 87% 29.94 in 1.2 mi NNW 25.3 mph 34.5 mph 0.00 in Snow Light Snow
12:49 AM 33.8 °F 23.2 °F 30.2 °F 87% 29.94 in 3.0 mi North 17.3 mph 29.9 mph 0.00 in Snow Light Snow
12:50 AM 34.0 °F 23.0 °F 30.9 °F 89% 29.94 in 3.0 mi North 18.4 mph 29.9 mph 0.00 in Snow Light Snow
1:04 AM 33.8 °F 24.8 °F 30.2 °F 87% 29.96 in 9.0 mi West 12.7 mph - 0.00 in   Overcast
1:11 AM 35.6 °F 27.5 °F 30.2 °F 81% 29.97 in 10.0 mi WNW 11.5 mph - 0.00 in   Overcast
1:53 AM 34.0 °F 27.2 °F 30.0 °F 85% 29.98 in 10.0 mi West 8.1 mph - 0.00 in   Mostly Cloudy
2:53 AM 30.9 °F 22.8 °F 26.1 °F 82% 30.03 in 10.0 mi NW 9.2 mph - N/A   Clear
3:53 AM 30.0 °F 23.2 °F 26.1 °F 85% 30.07 in 10.0 mi WNW 6.9 mph - N/A   Clear
4:53 AM 28.0 °F 24.2 °F 24.1 °F 85% 30.12 in 10.0 mi WNW 3.5 mph - N/A   Clear
5:53 AM 26.1 °F - 21.9 °F 84% 30.17 in 10.0 mi Calm Calm - N/A   Clear
6:53 AM 27.0 °F 20.5 °F 23.0 °F 85% 30.19 in 10.0 mi ESE 5.8 mph - N/A   Clear
7:53 AM 27.0 °F - 23.0 °F 85% 30.25 in 10.0 mi Calm Calm - N/A   Scattered Clouds
8:53 AM 28.9 °F 23.9 °F 26.1 °F 89% 30.30 in 10.0 mi West 4.6 mph - N/A   Partly Cloudy
9:53 AM 34.0 °F 28.8 °F 26.1 °F 73% 30.31 in 10.0 mi NNW 5.8 mph - N/A   Scattered Clouds
10:53 AM 39.9 °F 34.5 °F 21.0 °F 47% 30.31 in 10.0 mi NNW 8.1 mph - N/A   Clear
11:53 AM 41.0 °F 34.7 °F 19.9 °F 43% 30.33 in 10.0 mi WNW 10.4 mph - N/A   Clear
12:53 PM 43.0 °F 36.0 °F 18.0 °F 37% 30.34 in 10.0 mi NNW 13.8 mph - N/A   Clear
1:53 PM 44.1 °F 37.7 °F 16.0 °F 32% 30.35 in 10.0 mi WNW 12.7 mph - N/A   Clear
2:53 PM 44.1 °F 37.1 °F 12.0 °F 27% 30.36 in 10.0 mi WNW 15.0 mph 21.9 mph N/A   Clear
3:53 PM 43.0 °F 37.2 °F 12.9 °F 30% 30.40 in 10.0 mi NNW 10.4 mph - N/A   Clear
4:53 PM 36.0 °F 31.1 °F 16.0 °F 44% 30.46 in 10.0 mi NNW 5.8 mph - N/A   Clear
5:53 PM 34.0 °F 27.2 °F 14.0 °F 44% 30.50 in 10.0 mi NNW 8.1 mph - N/A   Clear
6:53 PM 30.0 °F 23.2 °F 17.1 °F 59% 30.52 in 10.0 mi WNW 6.9 mph - N/A   Clear
7:53 PM 30.0 °F 21.7 °F 16.0 °F 56% 30.55 in 10.0 mi West 9.2 mph - N/A   Clear
8:53 PM 28.0 °F 24.2 °F 15.1 °F 58% 30.57 in 10.0 mi WNW 3.5 mph - N/A   Clear
9:53 PM 25.0 °F - 16.0 °F 69% 30.56 in 10.0 mi Calm Calm - N/A   Clear
10:53 PM 24.1 °F 19.7 °F 16.0 °F 71% 30.56 in 10.0 mi Variable 3.5 mph - N/A   Clear
11:53 PM 21.9 °F - 16.0 °F 78% 30.58 in 10.0 mi Calm Calm - N/A   Clear